Regional Weather Roundup
Issued by NWS

Home | Current Version | Previous Version | Graphics & Text | Print | Product List | Glossary On
Versions: 1 2 3 4 5 6 7 8 9 10 11 12 13 14 15 16 17 18 19 20 21 22 23 24 25 26 27 28 29 30 31 32 33 34 35 36 37 38 39 40 41 42 43 44 45 46 47 48 49 50
000
ASUS45 KCYS 161810
RWRWY

WYOMING REGIONAL WEATHER ROUNDUP
NATIONAL WEATHER SERVICE CHEYENNE WY
1200 PM MDT TUE SEP 16 2014

NOTE:  "FAIR" INDICATES FEW OR NO CLOUDS BELOW 12,000 FEET
WITH NO SIGNIFICANT WEATHER AND/OR OBSTRUCTIONS TO VISIBILITY.

WYZ001-161900-
YELLOWSTONE NATIONAL PARK

CITY           SKY/WX    TMP DP  RH WIND       PRES   REMARKS
LK YELLOWSTONE   N/A     54  40  59 SE3       30.34F
6HR MIN TEMP:  31; 6HR MAX TEMP:  56;

W YELLOWSTONE  NOT AVBL

$$
WYZ002>013-054>058-071-098>099-161900-
NORTHERN WYOMING

CITY           SKY/WX    TMP DP  RH WIND       PRES   REMARKS
JACKSON        SUNNY     63  32  31 S6        30.27F
CODY           MOSUNNY   72  46  40 NE8       30.09F
GREYBULL       SUNNY     71  46  40 SE3       30.06F
6HR MIN TEMP:  43; 6HR MAX TEMP:  71;

WORLAND        MOSUNNY   71  48  43 NE3       30.07F
6HR MIN TEMP:  43; 6HR MAX TEMP:  71;

SHERIDAN       MOSUNNY   79  38  22 CALM      30.03F
6HR MIN TEMP:  42; 6HR MAX TEMP:  80;

BUFFALO        SUNNY     78  42  27 CALM      30.09F
6HR MIN TEMP:  54; 6HR MAX TEMP:  78;

GILLETTE         N/A     78  34  20 SW7       30.06F
6HR MIN TEMP:  43; 6HR MAX TEMP:  78;

HULETT         FAIR      73  41  31 MISG      30.08
NEWCASTLE      FAIR      73  39  29 CALM      30.08

$$
WYZ014>020-022>026-101>103-161900-
CENTRAL WYOMING

CITY           SKY/WX    TMP DP  RH WIND       PRES   REMARKS
BIG PINEY      SUNNY     68  29  23 S6        30.31F
6HR MIN TEMP:  34; 6HR MAX TEMP:  68;

PINEDALE       CLEAR     70  30  23 E3        30.31F
DUBOIS         FAIR      72  30  21 W22G31    30.24F
LANDER         SUNNY     72  33  24 NW5       30.17S
6HR MIN TEMP:  49; 6HR MAX TEMP:  72;

RIVERTON       SUNNY     72  38  29 E6        30.17F
6HR MIN TEMP:  47; 6HR MAX TEMP:  72;

CASPER         SUNNY     80  34  19 SW16      30.15F
6HR MIN TEMP:  46; 6HR MAX TEMP:  80;

DOUGLAS        MOSUNNY   78  36  21 N6        30.14S
6HR MIN TEMP:  48; 6HR MAX TEMP:  78;


$$
WYZ021-027>030-104>119-161900-
SOUTHERN WYOMING

CITY           SKY/WX    TMP DP  RH WIND       PRES   REMARKS
EVANSTON       SUNNY     76  36  23 W22G28    30.30F
6HR MIN TEMP:  51; 6HR MAX TEMP:  77;

KEMMERER       PTCLDY    72  32  23 CALM      30.31F
FORT BRIDGER   FAIR      72  37  28 NE5       30.32F
ROCK SPRINGS   MOSUNNY   74  33  22 CALM      30.28F
6HR MIN TEMP:  47; 6HR MAX TEMP:  74;

DIXON          FAIR      74  39  28 S5        30.31F
RAWLINS        SUNNY     76  28  17 SW12      30.28F
6HR MIN TEMP:  44; 6HR MAX TEMP:  77;

SARATOGA       FAIR      72  32  23 E6        30.31F
LARAMIE        SUNNY     73  30  20 NW16G23   30.29F
6HR MIN TEMP:  44; 6HR MAX TEMP:  73;

CHEYENNE       SUNNY     78  27  15 N16G28    30.21S
6HR MIN TEMP:  57; 6HR MAX TEMP:  78;

TORRINGTON     MOSUNNY   79  49  34 W6        30.08S
6HR MIN TEMP:  46; 6HR MAX TEMP:  79;

PINE BLUFFS    FAIR      79  37  22 NW15G23   30.15S

$$


USA.gov is the U.S. government's official web portal to all federal, state and local government web resources and services.